Location: Presov
(49.0000°N, 21.2500°E)
Time: 21:53:24
(UTC+02:00)

ISS - Pass Details

Date: 24 March 2019
Orbit: 408 x 410 km, 51.6° (Epoch: 24 April)

Event Time Altitude Azimuth Distance (km) Brightness Sun altitude
Rises 19:28:09 0° 243° (WSW) 2,330 0.7 -15.9°
Reaches altitude 10° 19:30:14 10° 241° (WSW) 1,470 -0.5 -16.3°
Maximum altitude 19:33:31 74° 157° (SSE) 429 -3.9 -16.8°
Enters shadow 19:34:21 46° 84° (E) 560 -3.6 -16.9°
